CW1792 Weather Reports


time (UTC)temp
C
wind
direction
speed
KPH
gust
KPH
rain 1hr
cm
rain 24hr
cm
rain mn
cm
humidity
%
barometer
mb
20260505203328 16 333 1.6 4.8 0.00 0.00 0.00 73 1015.4
20260505202328 15 223 0.0 1.6 0.00 0.00 0.00 73 1015.3
20260505201827 15 223 1.6 4.8 0.00 0.00 0.00 73 1015.4
20260505200827 15 339 1.6 3.2 0.00 0.00 0.00 73 1015.6
20260505200327 15 354 1.6 3.2 0.00 0.00 0.00 73 1015.7
20260505195828 15 0 1.6 3.2 0.00 0.00 0.00 74 1015.7
20260505195327 15 306 0.0 3.2 0.00 0.00 0.00 73 1015.7
20260505194327 15 56 0.0 4.8 0.00 0.00 0.00 73 1015.8
20260505193828 15 61 1.6 4.8 0.00 0.00 0.00 72 1015.8
20260505193327 15 3 1.6 4.8 0.00 0.00 0.00 72 1015.8
20260505192827 15 330 3.2 4.8 0.00 0.00 0.00 72 1015.8
20260505191328 15 5 1.6 3.2 0.00 0.00 0.00 72 1015.7
20260505190827 15 357 1.6 4.8 0.00 0.00 0.00 72 1015.7
20260505190327 15 30 1.6 4.8 0.00 0.00 0.00 72 1015.7
20260505185328 15 42 1.6 4.8 0.00 0.00 0.00 73 1015.7
20260505184828 15 352 1.6 4.8 0.00 0.00 0.00 72 1015.7
20260505184328 15 355 1.6 4.8 0.00 0.00 0.00 73 1015.6
20260505183827 15 70 1.6 3.2 0.00 0.00 0.00 73 1015.7
20260505182828 14 287 0.0 4.8 0.00 0.00 0.00 72 1015.7
20260505182327 14 321 3.2 4.8 0.00 0.00 0.00 73 1015.7
20260505181827 14 320 1.6 4.8 0.00 0.00 0.00 73 1015.7
20260505181328 14 244 0.0 3.2 0.00 0.00 0.00 73 1015.7
20260505180828 14 244 1.6 3.2 0.00 0.00 0.00 73 1015.6
20260505180328 14 265 0.0 3.2 0.00 0.00 0.00 72 1015.6
20260505175828 14 321 3.2 4.8 0.00 0.00 0.00 72 1015.6
20260505175327 14 262 1.6 3.2 0.00 0.00 0.00 72 1015.5
20260505174828 14 0 0.0 0.0 0.00 0.00 0.00 72 1015.4
20260505174328 14 0 0.0 3.2 0.00 0.00 0.00 71 1015.3
20260505173828 13 355 1.6 4.8 0.00 0.00 0.00 72 1015.2
20260505173327 13 263 0.0 0.0 0.00 0.00 0.00 72 1015.2
20260505172828 13 263 1.6 3.2 0.00 0.00 0.00 72 1015.2
20260505172328 13 41 0.0 1.6 0.00 0.00 0.00 73 1015.2
20260505171328 13 49 0.0 3.2 0.00 0.00 0.00 73 1015.2
20260505170828 13 49 1.6 3.2 0.00 0.00 0.00 73 1015.1
20260505170327 13 320 0.0 0.0 0.00 0.00 0.00 72 1015.1
20260505165828 13 320 1.6 4.8 0.00 0.00 0.00 72 1015.1
20260505165328 13 322 1.6 4.8 0.00 0.00 0.00 73 1015.1
20260505164828 13 7 0.0 3.2 0.00 0.00 0.00 74 1015.1
20260505164327 13 52 1.6 3.2 0.00 0.00 0.00 74 1015.0
20260505163827 13 52 0.0 1.6 0.00 0.00 0.00 75 1015.0
20260505163328 13 52 1.6 3.2 0.00 0.00 0.00 76 1014.9
20260505162827 13 53 1.6 3.2 0.00 0.00 0.00 76 1014.9
20260505162328 13 100 0.0 4.8 0.00 0.00 0.00 76 1015.0
20260505161828 13 128 0.0 4.8 0.00 0.00 0.00 76 1015.0
20260505161328 13 123 3.2 4.8 0.00 0.00 0.00 77 1014.9
20260505160828 13 99 1.6 4.8 0.00 0.00 0.00 78 1014.9
20260505153327 12 79 0.0 4.8 0.00 0.00 0.00 81 1014.7
20260505152827 12 94 1.6 4.8 0.00 0.00 0.00 82 1014.7
20260505152327 12 121 1.6 3.2 0.00 0.00 0.00 82 1014.7
20260505151827 12 121 1.6 3.2 0.00 0.00 0.00 83 1014.7
20260505151327 12 131 0.0 3.2 0.00 0.00 0.00 84 1014.7
20260505150828 12 131 0.0 3.2 0.00 0.00 0.00 84 1014.6
20260505150327 12 131 0.0 3.2 0.00 0.00 0.00 84 1014.6
20260505140327 11 263 0.0 0.0 0.00 0.00 0.00 87 1014.2
20260505124827 11 280 0.0 0.0 0.00 0.00 0.00 88 1014.1
20260505124327 11 280 0.0 0.0 0.00 0.00 0.00 88 1014.1
20260505123827 11 280 0.0 3.2 0.00 0.00 0.00 88 1014.1
20260505122827 11 280 0.0 3.2 0.00 0.00 0.00 88 1014.1
20260505122327 11 280 1.6 3.2 0.00 0.00 0.00 88 1014.1
20260505121327 11 280 0.0 1.6 0.00 0.00 0.00 88 1014.1
20260505120828 11 280 0.0 0.0 0.00 0.00 0.00 88 1014.1
20260505120327 11 280 0.0 1.6 0.00 0.00 0.00 88 1014.2
20260505115827 11 280 0.0 1.6 0.00 0.00 0.00 88 1014.2
20260505115327 11 280 0.0 1.6 0.00 0.00 0.00 88 1014.2
20260505114327 11 280 0.0 0.0 0.00 0.00 0.00 87 1014.3
20260505113327 11 280 0.0 0.0 0.00 0.00 0.00 86 1014.3
20260505112827 11 280 0.0 1.6 0.00 0.00 0.00 86 1014.2
20260505111828 11 280 0.0 0.0 0.00 0.00 0.00 86 1014.2
20260505111328 11 281 0.0 1.6 0.00 0.00 0.00 85 1014.2
20260505110828 11 281 0.0 1.6 0.00 0.00 0.00 85 1014.2
20260505110327 11 280 0.0 0.0 0.00 0.00 0.00 84 1014.1
20260505101828 12 294 0.0 0.0 0.00 0.00 0.00 82 1014.1
20260505100827 12 294 0.0 3.2 0.00 0.00 0.00 81 1014.2
20260505100328 12 294 0.0 1.6 0.00 0.00 0.00 82 1014.2
20260505095827 12 294 0.0 0.0 0.00 0.00 0.00 81 1014.2
20260505095327 12 294 0.0 1.6 0.00 0.00 0.00 80 1014.2
20260505094828 12 294 0.0 0.0 0.00 0.00 0.00 79 1014.3
20260505094328 12 294 0.0 0.0 0.00 0.00 0.00 78 1014.3
20260505093827 12 294 0.0 0.0 0.00 0.00 0.00 78 1014.4
20260505093328 12 294 0.0 1.6 0.00 0.00 0.00 77 1014.4
20260505092827 12 294 0.0 1.6 0.00 0.00 0.00 76 1014.3
20260505092327 12 294 0.0 0.0 0.00 0.00 0.00 76 1014.2
20260505091827 12 294 0.0 3.2 0.00 0.00 0.00 76 1014.3
20260505091327 12 316 0.0 3.2 0.00 0.00 0.00 76 1014.3
20260505090828 12 332 0.0 4.8 0.00 0.00 0.00 76 1014.5
20260505090327 12 346 1.6 4.8 0.00 0.00 0.00 76 1014.5
20260505085827 12 344 1.6 4.8 0.00 0.00 0.00 76 1014.7
20260505085327 12 343 3.2 8.0 0.00 0.00 0.00 76 1014.6
20260505084827 12 325 1.6 3.2 0.00 0.00 0.00 76 1014.6
20260505084327 12 291 0.0 4.8 0.00 0.00 0.00 76 1014.7
20260505083827 12 334 3.2 8.0 0.00 0.00 0.00 76 1014.9
20260505082827 12 319 1.6 9.7 0.00 0.00 0.00 78 1015.0
20260505082327 12 312 3.2 4.8 0.00 0.00 0.00 78 1014.9
20260505081828 12 304 4.8 9.7 0.00 0.00 0.00 78 1014.8
20260505081327 12 318 1.6 4.8 0.00 0.00 0.00 79 1014.9
20260505080827 12 337 1.6 8.0 0.00 0.00 0.00 79 1014.9
20260505080327 12 302 3.2 11.3 0.00 0.00 0.00 81 1015.0
20260505075828 12 311 1.6 3.2 0.00 0.00 0.00 81 1015.1
20260505075328 12 226 0.0 1.6 0.00 0.00 0.00 81 1015.1
20260505074828 12 226 0.0 1.6 0.00 0.00 0.00 81 1015.0
20260505073828 12 226 0.0 1.6 0.00 0.00 0.00 80 1015.1
20260505073328 12 226 0.0 1.6 0.00 0.00 0.00 80 1015.0
20260505072827 12 226 0.0 1.6 0.00 0.00 0.00 80 1014.9
20260505072327 12 226 0.0 1.6 0.00 0.00 0.00 79 1014.9
20260505071827 12 226 0.0 1.6 0.00 0.00 0.00 78 1014.8
20260505070327 12 226 0.0 1.6 0.00 0.00 0.00 78 1014.7
20260505065827 12 227 0.0 3.2 0.00 0.00 0.00 77 1014.6
20260505065327 12 357 0.0 1.6 0.00 0.00 0.00 77 1014.6
20260505063827 12 357 0.0 1.6 0.00 0.00 0.00 76 1014.6
20260505062828 12 319 0.0 1.6 0.00 0.00 0.00 75 1014.6
20260505062328 12 313 1.6 3.2 0.00 0.00 0.00 75 1014.5
20260505061827 13 256 0.0 0.0 0.00 0.00 0.00 75 1014.3
20260505061327 13 256 0.0 0.0 0.00 0.00 0.00 75 1014.3
20260505060827 13 256 0.0 0.0 0.00 0.00 0.00 74 1014.3
20260505060327 13 256 0.0 1.6 0.00 0.00 0.00 74 1014.3
20260505055327 13 256 0.0 3.2 0.00 0.00 0.00 74 1014.5
20260505054827 13 257 1.6 3.2 0.00 0.00 0.00 74 1014.6
20260505054327 13 263 0.0 1.6 0.00 0.00 0.00 74 1014.6
20260505053828 13 319 0.0 1.6 0.00 0.00 0.00 74 1014.6
20260505052827 13 355 1.6 4.8 0.00 0.00 0.00 73 1014.9
20260505051827 13 311 0.0 1.6 0.00 0.00 0.00 73 1015.0
20260505051328 13 326 0.0 3.2 0.00 0.00 0.00 73 1015.0
20260505050327 13 329 1.6 4.8 0.00 0.00 0.00 73 1015.0
20260505041327 14 316 1.6 8.0 0.00 0.00 0.00 67 1014.5
20260505040828 14 328 3.2 11.3 0.00 0.00 0.00 67 1014.5
20260505040327 14 322 3.2 9.7 0.00 0.00 0.00 66 1014.4
20260505035827 14 327 1.6 9.7 0.00 0.00 0.00 66 1014.4
20260505035327 15 331 4.8 11.3 0.00 0.00 0.00 65 1014.2
20260505034827 15 330 3.2 9.7 0.00 0.00 0.00 65 1014.2
20260505033827 15 311 1.6 3.2 0.00 0.00 0.00 67 1014.0
20260505033327 15 292 0.0 1.6 0.00 0.00 0.00 68 1013.9
20260505032827 15 248 0.0 1.6 0.00 0.00 0.00 68 1013.8
20260505032328 15 254 0.0 3.2 0.00 0.00 0.00 68 1013.7
20260505031327 15 329 0.0 3.2 0.00 0.00 0.00 67 1013.7
20260505030327 15 304 0.0 3.2 0.00 0.00 0.00 68 1013.8
20260505025327 15 241 1.6 8.0 0.00 0.00 0.00 68 1013.8
20260505024828 15 325 1.6 3.2 0.00 0.00 0.00 68 1013.8
20260505024327 15 266 1.6 3.2 0.00 0.00 0.00 69 1013.7
20260505023828 15 293 0.0 4.8 0.00 0.00 0.00 69 1013.6
20260505023327 15 282 0.0 4.8 0.00 0.00 0.00 68 1013.7
20260505022827 15 283 3.2 9.7 0.00 0.00 0.00 67 1013.9
20260505022327 15 332 6.4 19.3 0.00 0.00 0.00 66 1013.6
20260505021827 16 316 3.2 12.9 0.00 0.00 0.00 64 1013.7
20260505021327 16 10 1.6 11.3 0.00 0.00 0.00 64 1013.8
20260505020827 16 319 3.2 8.0 0.00 0.00 0.00 61 1013.7
20260505020327 16 344 3.2 9.7 0.00 0.00 0.00 61 1013.6
20260505015828 16 316 3.2 11.3 0.00 0.00 0.00 60 1013.7
20260505015327 16 322 1.6 11.3 0.00 0.00 0.00 60 1013.7
20260505014827 16 2 1.6 11.3 0.00 0.00 0.00 60 1013.6
20260505014327 16 317 8.0 11.3 0.00 0.00 0.00 60 1013.6
20260505013827 16 25 3.2 11.3 0.00 0.00 0.00 60 1013.6
20260505013327 16 346 4.8 11.3 0.00 0.00 0.00 60 1013.6
20260505012827 16 351 4.8 16.1 0.00 0.00 0.00 60 1013.7
20260505011827 17 25 3.2 8.0 0.00 0.00 0.00 60 1013.7
20260505010327 17 347 1.6 4.8 0.00 0.00 0.00 60 1013.8
20260505005827 17 322 3.2 4.8 0.00 0.00 0.00 60 1013.8
20260505005327 17 263 0.0 3.2 0.00 0.00 0.00 62 1013.8
20260505004827 17 274 1.6 4.8 0.00 0.00 0.00 61 1013.9
20260505004327 16 288 1.6 8.0 0.00 0.00 0.00 61 1013.9
20260505003827 16 343 1.6 9.7 0.00 0.00 0.00 61 1014.0
20260505003327 16 323 4.8 11.3 0.00 0.00 0.00 61 1014.0
20260505002327 16 288 6.4 16.1 0.00 0.00 0.00 61 1014.0
20260505001827 16 320 4.8 11.3 0.00 0.00 0.00 61 1014.0
20260505001327 16 318 4.8 16.1 0.00 0.00 0.00 62 1014.0
20260505000827 16 327 8.0 12.9 0.00 0.00 0.00 62 1013.9
20260505000327 16 327 4.8 11.3 0.00 0.00 0.00 62 1013.9
20260504235828 16 264 1.6 9.7 0.00 0.00 0.00 63 1013.9
20260504235328 16 292 1.6 9.7 0.00 0.00 0.00 64 1013.9
20260504234827 16 299 3.2 9.7 0.00 0.00 0.00 64 1013.8
20260504234327 16 275 1.6 8.0 0.00 0.00 0.00 64 1013.8
20260504233828 17 280 3.2 9.7 0.00 0.00 0.00 64 1013.9
20260504233327 17 270 3.2 8.0 0.00 0.00 0.00 64 1013.9
20260504232827 17 281 1.6 11.3 0.00 0.00 0.00 64 1013.9
20260504232327 17 251 3.2 12.9 0.00 0.00 0.00 65 1013.9
20260504231327 17 266 1.6 8.0 0.00 0.00 0.00 63 1013.9
20260504230827 17 263 3.2 9.7 0.00 0.00 0.00 62 1013.9
20260504230327 17 289 4.8 12.9 0.00 0.00 0.00 61 1013.9
20260504225827 17 263 1.6 11.3 0.00 0.00 0.00 60 1014.0
20260504225327 17 294 1.6 8.0 0.00 0.00 0.00 60 1013.8
20260504224827 17 254 1.6 8.0 0.00 0.00 0.00 59 1013.8
20260504224327 17 303 1.6 8.0 0.00 0.00 0.00 58 1013.7
20260504223327 18 284 1.6 9.7 0.00 0.00 0.00 59 1013.9
20260504222827 18 288 1.6 4.8 0.00 0.00 0.00 58 1013.9
20260504222327 18 283 3.2 11.3 0.00 0.00 0.00 57 1013.9
20260504221827 18 303 1.6 8.0 0.00 0.00 0.00 58 1013.9
20260504221327 18 338 4.8 11.3 0.00 0.00 0.00 56 1013.9
20260504220827 18 15 4.8 9.7 0.00 0.00 0.00 55 1013.9
20260504220328 18 321 3.2 9.7 0.00 0.00 0.00 56 1014.1
20260504215827 18 320 4.8 11.3 0.00 0.00 0.00 54 1014.1
20260504215327 18 314 1.6 4.8 0.00 0.00 0.00 59 1014.1
20260504214827 18 256 3.2 4.8 0.00 0.00 0.00 57 1014.1
20260504214327 18 307 4.8 11.3 0.00 0.00 0.00 59 1014.2
20260504213827 18 273 1.6 8.0 0.00 0.00 0.00 61 1014.3
20260504213327 18 271 3.2 9.7 0.00 0.00 0.00 60 1014.4
20260504212826 17 280 3.2 9.7 0.00 0.00 0.00 62 1014.4
20260504211827 17 305 4.8 11.3 0.00 0.00 0.00 62 1014.3
20260504211327 17 250 4.8 16.1 0.00 0.00 0.00 62 1014.4
20260504210827 17 226 4.8 12.9 0.00 0.00 0.00 62 1014.5
20260504205827 17 226 3.2 9.7 0.00 0.00 0.00 62 1014.6
20260504204327 17 253 1.6 11.3 0.00 0.00 0.00 63 1014.5
20260504203827 17 243 3.2 9.7 0.00 0.00 0.00 63 1014.5